| time (UTC) | temp C | wind direction | speed KPH | gust KPH | rain 1hr cm | rain 24hr cm | rain mn cm | humidity % | barometer mb |
| 20260507050109 | -17 | 0.0 | 0.0 | 0.00 | 0.00 | 0.00 | 1006.2 | ||
| 20260507044537 | 11 | 0.0 | 0.0 | 0.00 | 0.00 | 0.00 | 44 | 1006.3 | |
| 20260507043058 | 11 | 325 | 6.4 | 0.0 | 0.00 | 0.00 | 0.00 | 44 | 1006.3 |
| 20260507041547 | 12 | 0.0 | 0.0 | 0.00 | 0.00 | 0.00 | 46 | 1006.4 | |
| 20260507040052 | 12 | 0.0 | 0.0 | 0.00 | 0.00 | 0.00 | 46 | 1006.3 | |
| 20260507034602 | 12 | 360 | 8.0 | 0.0 | 0.00 | 0.00 | 2.08 | 45 | 1005.8 |
| 20260507033100 | 12 | 347 | 6.4 | 0.0 | 0.00 | 0.00 | 2.08 | 46 | 1006.0 |
| 20260507031554 | 12 | 330 | 6.4 | 0.0 | 0.00 | 0.00 | 2.08 | 47 | 1006.3 |
| 20260507030034 | 12 | 360 | 11.3 | 0.0 | 0.00 | 0.00 | 2.08 | 48 | 1006.1 |
| 20260507024611 | 12 | 0.0 | 0.0 | 0.00 | 0.00 | 2.08 | 48 | 1006.0 | |
| 20260507023040 | 13 | 0.0 | 0.0 | 0.00 | 0.00 | 2.08 | 48 | 1005.7 | |
| 20260507021554 | 13 | 311 | 8.0 | 0.0 | 0.00 | 0.00 | 2.08 | 48 | 1005.7 |
| 20260507020042 | 13 | 349 | 9.7 | 0.0 | 0.00 | 0.00 | 2.08 | 50 | 1005.9 |
| 20260507014558 | 14 | 343 | 4.8 | 0.0 | 0.00 | 0.00 | 2.08 | 51 | 1006.1 |
| 20260507013102 | 14 | 344 | 3.2 | 0.0 | 0.00 | 0.00 | 2.08 | 51 | 1005.9 |
| 20260507011559 | 15 | 305 | 1.6 | 0.0 | 0.00 | 0.00 | 2.08 | 51 | 1005.7 |
| 20260507010042 | 15 | 284 | 6.4 | 0.0 | 0.00 | 0.00 | 2.08 | 50 | 1005.2 |
| 20260507004543 | 15 | 309 | 8.0 | 0.0 | 0.00 | 0.00 | 2.08 | 50 | 1005.0 |
| 20260507003057 | 15 | 248 | 6.4 | 0.0 | 0.00 | 0.00 | 2.08 | 51 | 1004.7 |
| 20260507001604 | 15 | 254 | 4.8 | 0.0 | 0.00 | 0.00 | 2.08 | 53 | 1004.4 |
| 20260507000049 | 15 | 0.0 | 0.0 | 0.00 | 0.00 | 2.08 | 53 | 1004.0 | |
| 20260506234539 | 16 | 282 | 9.7 | 0.0 | 0.00 | 0.00 | 2.08 | 55 | 1003.5 |
| 20260506233052 | 16 | 274 | 6.4 | 0.0 | 0.00 | 0.00 | 2.08 | 61 | 1003.4 |
| 20260506231535 | 17 | 263 | 4.8 | 0.0 | 0.00 | 0.00 | 2.08 | 61 | 1003.4 |
| 20260506230121 | 17 | 275 | 4.8 | 0.0 | 0.00 | 0.00 | 2.08 | 61 | 1003.3 |
| 20260506224551 | 17 | 258 | 6.4 | 0.0 | 0.00 | 0.00 | 2.01 | 58 | 1003.1 |
| 20260506223040 | 18 | 280 | 4.8 | 0.0 | 0.00 | 0.00 | 1.57 | 55 | 1003.0 |
| 20260506221530 | 18 | 215 | 3.2 | 0.0 | 0.00 | 0.00 | 0.86 | 49 | 1002.6 |
| 20260506220042 | 19 | 226 | 4.8 | 0.0 | 0.00 | 0.00 | 0.86 | 49 | 1002.6 |
| 20260506214609 | 19 | 263 | 4.8 | 0.0 | 0.00 | 0.00 | 0.86 | 49 | 1002.4 |
| 20260506213041 | 19 | 237 | 4.8 | 0.0 | 0.00 | 0.00 | 0.86 | 51 | 1002.3 |
| 20260506211534 | 18 | 226 | 4.8 | 0.0 | 0.00 | 0.00 | 0.86 | 51 | 1002.4 |
| 20260506210056 | 18 | 229 | 8.0 | 0.0 | 0.00 | 0.00 | 0.86 | 51 | 1002.2 |
| 20260506204547 | 18 | 349 | 6.4 | 0.0 | 0.00 | 0.00 | 0.86 | 52 | 1002.1 |
| 20260506203040 | 18 | 220 | 4.8 | 0.0 | 0.00 | 0.00 | 0.86 | 56 | 1002.1 |
| 20260506201548 | 17 | 220 | 3.2 | 0.0 | 0.00 | 0.00 | 0.86 | 57 | 1002.1 |
| 20260506200107 | 17 | 265 | 3.2 | 0.0 | 0.00 | 0.00 | 0.86 | 58 | 1002.3 |
| 20260506194558 | 17 | 250 | 6.4 | 0.0 | 0.00 | 0.00 | 0.86 | 58 | 1002.5 |
| 20260506193100 | 17 | 193 | 6.4 | 0.0 | 0.00 | 0.00 | 0.86 | 60 | 1002.4 |
| 20260506191551 | 17 | 258 | 8.0 | 0.0 | 0.00 | 0.00 | 0.86 | 60 | 1002.5 |
| 20260506190042 | 16 | 246 | 9.7 | 0.0 | 0.00 | 0.00 | 0.86 | 61 | 1002.5 |
| 20260506184535 | 16 | 237 | 8.0 | 0.0 | 0.00 | 0.00 | 0.86 | 62 | 1002.6 |
| 20260506183102 | 16 | 206 | 6.4 | 0.0 | 0.00 | 0.00 | 0.86 | 63 | 1002.7 |
| 20260506181601 | 16 | 353 | 4.8 | 0.0 | 0.00 | 0.00 | 0.86 | 64 | 1002.9 |
| 20260506180049 | 16 | 354 | 6.4 | 0.0 | 0.00 | 0.00 | 0.86 | 63 | 1003.1 |
| 20260506174553 | 16 | 352 | 4.8 | 0.0 | 0.00 | 0.00 | 0.86 | 64 | 1003.0 |
| 20260506173043 | 16 | 352 | 6.4 | 0.0 | 0.00 | 0.00 | 0.86 | 63 | 1003.0 |
| 20260506171549 | 16 | 352 | 3.2 | 0.0 | 0.00 | 0.00 | 0.84 | 63 | 1003.1 |
| 20260506170057 | 16 | 350 | 3.2 | 0.0 | 0.00 | 0.00 | 0.84 | 63 | 1003.1 |
| 20260506164546 | 16 | 353 | 4.8 | 0.0 | 0.00 | 0.00 | 0.84 | 63 | 1003.2 |
| 20260506163034 | 16 | 350 | 4.8 | 0.0 | 0.00 | 0.00 | 0.84 | 63 | 1003.1 |
| 20260506161536 | 16 | 353 | 6.4 | 0.0 | 0.00 | 0.00 | 0.84 | 63 | 1003.3 |
| 20260506160055 | 16 | 352 | 4.8 | 0.0 | 0.00 | 0.00 | 0.84 | 63 | 1003.2 |
| 20260506154608 | 16 | 352 | 4.8 | 0.0 | 0.00 | 0.00 | 0.84 | 63 | 1003.1 |
| 20260506153032 | 16 | 353 | 4.8 | 0.0 | 0.00 | 0.00 | 0.81 | 63 | 1003.1 |
| 20260506151559 | 16 | 352 | 4.8 | 0.0 | 0.00 | 0.00 | 0.74 | 62 | 1003.3 |
| 20260506150045 | 16 | 353 | 4.8 | 0.0 | 0.00 | 0.00 | 0.61 | 61 | 1003.9 |
| 20260506144533 | 16 | 354 | 6.4 | 0.0 | 0.00 | 0.00 | 0.46 | 60 | 1004.3 |
| 20260506143040 | 16 | 352 | 3.2 | 0.0 | 0.00 | 0.00 | 0.36 | 59 | 1003.9 |
| 20260506141615 | 16 | 350 | 3.2 | 0.0 | 0.00 | 0.00 | 0.30 | 59 | 1003.7 |
| 20260506140051 | 16 | 353 | 3.2 | 0.0 | 0.00 | 0.00 | 0.25 | 58 | 1003.6 |
| 20260506134550 | 16 | 352 | 3.2 | 0.0 | 0.00 | 0.00 | 0.18 | 57 | 1003.8 |
| 20260506133100 | 16 | 352 | 3.2 | 0.0 | 0.00 | 0.00 | 0.13 | 58 | 1003.9 |
| 20260506131530 | 16 | 0.0 | 0.0 | 0.00 | 0.00 | 0.13 | 55 | 1003.8 | |
| 20260506130053 | 16 | 352 | 1.6 | 0.0 | 0.00 | 0.00 | 0.10 | 54 | 1004.0 |
| 20260506124556 | 16 | 0.0 | 0.0 | 0.00 | 0.00 | 0.03 | 51 | 1004.1 | |
| 20260506123055 | 16 | 0.0 | 0.0 | 0.00 | 0.00 | 0.03 | 50 | 1004.2 | |
| 20260506121545 | -17 | 0.0 | 0.0 | 0.00 | 0.00 | 0.03 | 1004.3 | ||
| 20260506120126 | 17 | 354 | 3.2 | 0.0 | 0.00 | 0.00 | 0.03 | 44 | 1004.0 |
| 20260506114533 | 17 | 352 | 3.2 | 0.0 | 0.00 | 0.00 | 0.00 | 42 | 1003.8 |
| 20260506113120 | 17 | 352 | 3.2 | 0.0 | 0.00 | 0.00 | 0.00 | 40 | 1003.8 |
| 20260506111547 | 17 | 176 | 1.6 | 0.0 | 0.00 | 0.00 | 0.00 | 42 | 1003.6 |
| 20260506110049 | 16 | 174 | 1.6 | 0.0 | 0.00 | 0.00 | 0.00 | 45 | 1003.5 |
| 20260506104542 | 15 | 174 | 1.6 | 0.0 | 0.00 | 0.00 | 0.00 | 48 | 1003.4 |
| 20260506103044 | 15 | 175 | 0.0 | 0.0 | 0.00 | 0.00 | 0.00 | 48 | 1003.2 |
| 20260506101533 | 15 | 175 | 0.0 | 0.0 | 0.00 | 0.00 | 0.00 | 48 | 1003.0 |
| 20260506100121 | 15 | 175 | 0.0 | 0.0 | 0.00 | 0.00 | 0.00 | 47 | 1002.9 |
| 20260506094551 | 14 | 172 | 0.0 | 0.0 | 0.00 | 0.00 | 0.00 | 48 | 1003.0 |
| 20260506093041 | 14 | 174 | 1.6 | 0.0 | 0.00 | 0.00 | 0.00 | 50 | 1003.1 |
| 20260506091532 | 13 | 172 | 0.0 | 0.0 | 0.00 | 0.00 | 0.00 | 50 | 1003.1 |
| 20260506090032 | 13 | 172 | 0.0 | 0.0 | 0.00 | 0.00 | 0.00 | 48 | 1003.2 |
| 20260506084552 | 13 | 172 | 0.0 | 0.0 | 0.00 | 0.00 | 0.00 | 47 | 1003.1 |
| 20260506083044 | 13 | 174 | 1.6 | 0.0 | 0.00 | 0.00 | 0.00 | 47 | 1003.3 |
| 20260506081533 | 13 | 172 | 0.0 | 0.0 | 0.00 | 0.00 | 0.00 | 47 | 1003.3 |
| 20260506073101 | 14 | 175 | 0.0 | 0.0 | 0.00 | 0.00 | 0.00 | 44 | 1003.4 |
| 20260506071554 | 14 | 175 | 0.0 | 0.0 | 0.00 | 0.00 | 0.00 | 43 | 1003.5 |
| 20260506061549 | 15 | 171 | 0.0 | 0.0 | 0.00 | 0.00 | 0.00 | 39 | 1004.1 |